Parsons, KS

2:19 AM CST on November 12, 2019 (GMT -0600)
Tri-City

Weather History for KPPF - July, 2019

Change the Weather History Date:

Saturday, July 13, 2019

  Actual Average Record
Temperature  
Mean Temperature 80 °F -  
Max Temperature 91 °F 92 °F 113 °F (1954)
Min Temperature 69 °F 69 °F 55 °F (1964)
Cooling Degree Days 15    
Growing Degree Days 30 (Base 50)    
Moisture  
Dew Point 70 °F    
Average Humidity 73    
Maximum Humidity 96    
Minimum Humidity 45    
Precipitation  
Precipitation 0.00 in - - ()
Sea Level Pressure  
Sea Level Pressure 29.98 in    
Wind  
Wind Speed 1 mph (ESE)    
Max Wind Speed 8 mph    
Max Gust Speed -    
Visibility 10 miles    
Events      
Averages and records for this station are not official NWS values.
T = Trace of Precipitation, MM = Missing Value Source: NWS Daily Summary

Daily Weather History Graph

Daily Weather History Graph

Search for Another Location

Airport or City:

Astronomy

Jul. 13, 2019 Rise Set
Actual Time 6:11 AM CDT 8:43 PM CDT
Civil Twilight 5:41 AM CDT 9:13 PM CDT
Nautical Twilight 5:03 AM CDT 9:51 PM CDT
Astronomical Twilight 4:22 AM CDT 10:32 PM CDT
Moon 6:07 PM CDT (7/13) 3:31 AM CDT (7/13)
Length of Visible Light 15h 32m
Length of Day
14h 31m
Waxing Gibbous, 90% of the Moon is Illuminated
Jul 13
Waxing Gibbous
Jul 16
Full
Jul 24
Last Quarter
Jul 31
New
Aug 7
First Quarter

Hourly Weather History & Observations

Time (CDT) Temp. Heat Index Dew Point Humidity Pressure Visibility Wind Dir Wind Speed Gust Speed Precip Events Conditions
12:52 AM 71.1 °F - 69.1 °F 93% 29.95 in 10.0 mi Calm Calm - N/A   Clear
1:52 AM 70.0 °F - 68.0 °F 93% 29.96 in 10.0 mi Calm Calm - N/A   Clear
2:52 AM 69.1 °F - 68.0 °F 96% 29.96 in 10.0 mi Calm Calm - N/A   Clear
3:52 AM 69.1 °F - 68.0 °F 96% 29.96 in 10.0 mi Calm Calm - N/A   Clear
4:52 AM 70.0 °F - 68.0 °F 93% 29.97 in 10.0 mi Calm Calm - N/A   Partly Cloudy
5:52 AM 71.1 °F - 69.1 °F 93% 29.97 in 10.0 mi Calm Calm - N/A   Clear
6:52 AM 71.1 °F - 69.1 °F 93% 29.99 in 10.0 mi Variable 3.5 mph - N/A   Clear
7:52 AM 75.0 °F - 71.1 °F 87% 30.00 in 10.0 mi Calm Calm - N/A   Partly Cloudy
8:52 AM 80.1 °F 83.8 °F 72.0 °F 76% 30.02 in 10.0 mi Calm Calm - N/A   Clear
9:52 AM 84.0 °F 90.2 °F 73.0 °F 69% 30.03 in 10.0 mi Calm Calm - N/A   Clear
10:52 AM 84.9 °F 90.1 °F 71.1 °F 63% 30.03 in 10.0 mi Calm Calm - N/A   Partly Cloudy
11:52 AM 86.0 °F 90.7 °F 70.0 °F 59% 30.02 in 10.0 mi Variable 3.5 mph - N/A   Scattered Clouds
12:52 PM 88.0 °F 91.4 °F 68.0 °F 51% 30.01 in 10.0 mi Variable 6.9 mph - N/A   Clear
1:52 PM 89.1 °F 92.9 °F 68.0 °F 50% 30.00 in 10.0 mi ENE 8.1 mph - N/A   Clear
2:52 PM 90.0 °F 92.8 °F 66.9 °F 46% 29.99 in 10.0 mi ESE 8.1 mph - N/A   Clear
3:52 PM 91.0 °F 94.3 °F 66.9 °F 45% 29.98 in 10.0 mi North - - N/A   Clear
4:52 PM 91.0 °F 94.3 °F 66.9 °F 45% 29.96 in 10.0 mi Variable 4.6 mph - N/A   Clear
5:52 PM 91.0 °F 95.6 °F 69.1 °F 48% 29.95 in 10.0 mi North - - N/A   Clear
6:52 PM 89.1 °F 94.1 °F 70.0 °F 53% 29.94 in 10.0 mi SE 5.8 mph - N/A   Clear
7:52 PM 88.0 °F 94.7 °F 72.0 °F 59% 29.96 in 10.0 mi Calm Calm - N/A   Clear
8:52 PM 79.0 °F - 73.9 °F 84% 29.95 in 10.0 mi Calm Calm - N/A   Clear
9:52 PM 75.9 °F - 72.0 °F 87% 29.97 in 10.0 mi Calm Calm - N/A   Clear
10:52 PM 75.0 °F - 72.0 °F 90% 29.99 in 10.0 mi Calm Calm - N/A   Clear
11:52 PM 75.9 °F - 71.1 °F 85% 30.01 in 10.0 mi Calm Calm - N/A   Clear